Year,Month,Day,Hour,Minute,Value (Times are PST for temperature in C)
2010,07,17,00,00,11.70
2010,07,17,00,01,11.70
2010,07,17,00,02,11.70
2010,07,17,00,03,11.70
2010,07,17,00,04,11.60
2010,07,17,00,05,11.60
2010,07,17,00,06,11.60
2010,07,17,00,07,11.60
2010,07,17,00,08,11.60
2010,07,17,00,09,11.60
2010,07,17,00,10,11.60
2010,07,17,00,11,11.60
2010,07,17,00,12,11.60
2010,07,17,00,13,11.60
2010,07,17,00,14,11.60
2010,07,17,00,15,11.60
2010,07,17,00,16,11.60
2010,07,17,00,17,11.50
2010,07,17,00,18,11.40
2010,07,17,00,19,11.40
2010,07,17,00,20,11.40
2010,07,17,00,21,11.40
2010,07,17,00,22,11.40
2010,07,17,00,23,11.40
2010,07,17,00,24,11.40
2010,07,17,00,25,11.40
2010,07,17,00,26,11.40
2010,07,17,00,27,11.40
2010,07,17,00,28,11.40
2010,07,17,00,29,11.40
2010,07,17,00,30,11.40
2010,07,17,00,31,11.30
2010,07,17,00,32,11.30
2010,07,17,00,33,11.30
2010,07,17,00,34,11.30
2010,07,17,00,35,11.30
2010,07,17,00,36,11.20
2010,07,17,00,37,11.20
2010,07,17,00,38,11.20
2010,07,17,00,39,11.20
2010,07,17,00,40,11.20
2010,07,17,00,41,11.20
2010,07,17,00,42,11.10
2010,07,17,00,43,11.10
2010,07,17,00,44,11.10
2010,07,17,00,45,11.10
2010,07,17,00,46,11.10
2010,07,17,00,47,11.10
2010,07,17,00,48,11.10
2010,07,17,00,49,11.10
2010,07,17,00,50,11.10
2010,07,17,00,51,11.10
2010,07,17,00,52,11.10
2010,07,17,00,53,11.00
2010,07,17,00,54,10.90
2010,07,17,00,55,10.90
2010,07,17,00,56,10.90
2010,07,17,00,57,10.90
2010,07,17,00,58,10.90
2010,07,17,00,59,10.90
2010,07,17,01,00,10.90
2010,07,17,01,01,10.90
2010,07,17,01,02,10.90
2010,07,17,01,03,10.90
2010,07,17,01,04,10.90
2010,07,17,01,05,10.80
2010,07,17,01,06,10.80
2010,07,17,01,07,10.80
2010,07,17,01,08,10.80
2010,07,17,01,09,10.80
2010,07,17,01,10,10.70
2010,07,17,01,11,10.70
2010,07,17,01,12,10.70
2010,07,17,01,13,10.70
2010,07,17,01,14,10.70
2010,07,17,01,15,10.70
2010,07,17,01,16,10.60
2010,07,17,01,17,10.60
2010,07,17,01,18,10.60
2010,07,17,01,19,10.60
2010,07,17,01,20,10.60
2010,07,17,01,21,10.60
2010,07,17,01,22,10.60
2010,07,17,01,23,10.60
2010,07,17,01,24,10.60
2010,07,17,01,25,10.60
2010,07,17,01,26,10.60
2010,07,17,01,27,10.60
2010,07,17,01,28,10.60
2010,07,17,01,29,10.50
2010,07,17,01,30,10.40
2010,07,17,01,31,10.40
2010,07,17,01,32,10.40
2010,07,17,01,33,10.40
2010,07,17,01,34,10.40
2010,07,17,01,35,10.40
2010,07,17,01,36,10.40
2010,07,17,01,37,10.40
2010,07,17,01,38,10.40
2010,07,17,01,39,10.40
2010,07,17,01,40,10.40
2010,07,17,01,41,10.40
2010,07,17,01,42,10.40
2010,07,17,01,43,10.40
2010,07,17,01,44,10.40
2010,07,17,01,45,10.40
2010,07,17,01,46,10.40
2010,07,17,01,47,10.40
2010,07,17,01,48,10.40
2010,07,17,01,49,10.40
2010,07,17,01,50,10.40
2010,07,17,01,51,10.30
2010,07,17,01,52,10.30
2010,07,17,01,53,10.30
2010,07,17,01,54,10.30
2010,07,17,01,55,10.30
2010,07,17,01,56,10.30
2010,07,17,01,57,10.30
2010,07,17,01,58,10.30
2010,07,17,01,59,10.30
2010,07,17,02,00,10.30
2010,07,17,02,01,10.30
2010,07,17,02,02,10.30
2010,07,17,02,03,10.30
2010,07,17,02,04,10.30
2010,07,17,02,05,10.30
2010,07,17,02,06,10.30
2010,07,17,02,07,10.30
2010,07,17,02,08,10.30
2010,07,17,02,09,10.30
2010,07,17,02,10,10.30
2010,07,17,02,11,10.30
2010,07,17,02,12,10.30
2010,07,17,02,13,10.20
2010,07,17,02,14,10.20
2010,07,17,02,15,10.20
2010,07,17,02,16,10.20
2010,07,17,02,17,10.20
2010,07,17,02,18,10.10
2010,07,17,02,19,10.10
2010,07,17,02,20,10.10
2010,07,17,02,21,10.10
2010,07,17,02,22,10.10
2010,07,17,02,23,10.10
2010,07,17,02,24,10.00
2010,07,17,02,25,9.90
2010,07,17,02,26,9.90
2010,07,17,02,27,9.90
2010,07,17,02,28,9.90
2010,07,17,02,29,9.90
2010,07,17,02,30,9.90
2010,07,17,02,31,9.90
2010,07,17,02,32,9.90
2010,07,17,02,33,9.90
2010,07,17,02,34,9.90
2010,07,17,02,35,9.90
2010,07,17,02,36,9.90
2010,07,17,02,37,9.90
2010,07,17,02,38,9.90
2010,07,17,02,39,9.90
2010,07,17,02,40,9.90
2010,07,17,02,41,9.90
2010,07,17,02,42,9.90
2010,07,17,02,43,9.90
2010,07,17,02,44,9.90
2010,07,17,02,45,9.90
2010,07,17,02,46,9.90
2010,07,17,02,47,9.90
2010,07,17,02,48,9.90
2010,07,17,02,49,9.90
2010,07,17,02,50,9.90
2010,07,17,02,51,9.90
2010,07,17,02,52,9.90
2010,07,17,02,53,9.90
2010,07,17,02,54,9.90
2010,07,17,02,55,9.90
2010,07,17,02,56,9.90
2010,07,17,02,57,9.90
2010,07,17,02,58,9.90
2010,07,17,02,59,9.90
2010,07,17,03,00,9.90
2010,07,17,03,01,9.90
2010,07,17,03,02,9.90
2010,07,17,03,03,9.90
2010,07,17,03,04,9.90
2010,07,17,03,05,9.90
2010,07,17,03,06,9.80
2010,07,17,03,07,9.80
2010,07,17,03,08,9.80
2010,07,17,03,09,9.80
2010,07,17,03,10,9.80
2010,07,17,03,11,9.80
2010,07,17,03,12,9.80
2010,07,17,03,13,9.80
2010,07,17,03,14,9.80
2010,07,17,03,15,9.80
2010,07,17,03,16,9.80
2010,07,17,03,17,9.80
2010,07,17,03,18,9.70
2010,07,17,03,19,9.70
2010,07,17,03,20,9.70
2010,07,17,03,21,9.70
2010,07,17,03,22,9.70
2010,07,17,03,23,9.70
2010,07,17,03,24,9.70
2010,07,17,03,25,9.70
2010,07,17,03,26,9.70
2010,07,17,03,27,9.70
2010,07,17,03,28,9.60
2010,07,17,03,29,9.60
2010,07,17,03,30,9.60
2010,07,17,03,31,9.60
2010,07,17,03,32,9.50
2010,07,17,03,33,9.50
2010,07,17,03,34,9.50
2010,07,17,03,35,9.50
2010,07,17,03,36,9.50
2010,07,17,03,37,9.40
2010,07,17,03,38,9.40
2010,07,17,03,39,9.40
2010,07,17,03,40,9.40
2010,07,17,03,41,9.40
2010,07,17,03,42,9.40
2010,07,17,03,43,9.40
2010,07,17,03,44,9.40
2010,07,17,03,45,9.40
2010,07,17,03,46,9.40
2010,07,17,03,47,9.40
2010,07,17,03,48,9.40
2010,07,17,03,49,9.40
2010,07,17,03,50,9.40
2010,07,17,03,51,9.40
2010,07,17,03,52,9.40
2010,07,17,03,53,9.40
2010,07,17,03,54,9.40
2010,07,17,03,55,9.40
2010,07,17,03,56,9.40
2010,07,17,03,57,9.40
2010,07,17,03,58,9.40
2010,07,17,03,59,9.40
2010,07,17,04,00,9.40
2010,07,17,04,01,9.40
2010,07,17,04,02,9.40
2010,07,17,04,03,9.30
2010,07,17,04,04,9.30
2010,07,17,04,05,9.30
2010,07,17,04,06,9.30
2010,07,17,04,07,9.30
2010,07,17,04,08,9.30
2010,07,17,04,09,9.30
2010,07,17,04,10,9.30
2010,07,17,04,11,9.30
2010,07,17,04,12,9.30
2010,07,17,04,13,9.30
2010,07,17,04,14,9.30
2010,07,17,04,15,9.30
2010,07,17,04,16,9.30
2010,07,17,04,17,9.30
2010,07,17,04,18,9.30
2010,07,17,04,19,9.20
2010,07,17,04,20,9.20
2010,07,17,04,21,9.20
2010,07,17,04,22,9.20
2010,07,17,04,23,9.20
2010,07,17,04,24,9.20
2010,07,17,04,25,9.20
2010,07,17,04,26,9.20
2010,07,17,04,27,9.20
2010,07,17,04,28,9.20
2010,07,17,04,29,9.20
2010,07,17,04,30,9.20
2010,07,17,04,31,9.20
2010,07,17,04,32,9.20
2010,07,17,04,33,9.20
2010,07,17,04,34,9.20
2010,07,17,04,35,9.20
2010,07,17,04,36,9.20
2010,07,17,04,37,9.20
2010,07,17,04,38,9.20
2010,07,17,04,39,9.20
2010,07,17,04,40,9.20
2010,07,17,04,41,9.20
2010,07,17,04,42,9.10
2010,07,17,04,43,9.10
2010,07,17,04,44,9.10
2010,07,17,04,45,9.10
2010,07,17,04,46,9.00
2010,07,17,04,47,9.00
2010,07,17,04,48,9.00
2010,07,17,04,49,9.00
2010,07,17,04,50,9.00
2010,07,17,04,51,9.00
2010,07,17,04,52,9.00
2010,07,17,04,53,9.00
2010,07,17,04,54,9.00
2010,07,17,04,55,9.00
2010,07,17,04,56,8.90
2010,07,17,04,57,8.90
2010,07,17,04,58,8.90
2010,07,17,04,59,8.90
2010,07,17,05,00,8.90
2010,07,17,05,01,8.90
2010,07,17,05,02,8.90
2010,07,17,05,03,8.90
2010,07,17,05,04,8.90
2010,07,17,05,05,8.90
2010,07,17,05,06,8.90
2010,07,17,05,07,8.90
2010,07,17,05,08,8.90
2010,07,17,05,09,8.90
2010,07,17,05,10,8.90
2010,07,17,05,11,9.00
2010,07,17,05,12,9.00
2010,07,17,05,13,8.90
2010,07,17,05,14,8.90
2010,07,17,05,15,8.90
2010,07,17,05,16,8.90
2010,07,17,05,17,8.90
2010,07,17,05,18,8.90
2010,07,17,05,19,8.90
2010,07,17,05,20,8.80
2010,07,17,05,21,8.80
2010,07,17,05,22,8.80
2010,07,17,05,23,8.80
2010,07,17,05,24,8.70
2010,07,17,05,25,8.70
2010,07,17,05,26,8.70
2010,07,17,05,27,8.70
2010,07,17,05,28,8.70
2010,07,17,05,29,8.70
2010,07,17,05,30,8.70
2010,07,17,05,31,8.70
2010,07,17,05,32,8.70
2010,07,17,05,33,8.70
2010,07,17,05,34,8.70
2010,07,17,05,35,8.70
2010,07,17,05,36,8.70
2010,07,17,05,37,8.70
2010,07,17,05,38,8.70
2010,07,17,05,39,8.70
2010,07,17,05,40,8.70
2010,07,17,05,41,8.70
2010,07,17,05,42,8.70
2010,07,17,05,43,8.70
2010,07,17,05,44,8.70
2010,07,17,05,45,8.70
2010,07,17,05,46,8.70
2010,07,17,05,47,8.70
2010,07,17,05,48,8.70
2010,07,17,05,49,8.70
2010,07,17,05,50,8.70
2010,07,17,05,51,8.70
2010,07,17,05,52,8.70
2010,07,17,05,53,8.70
2010,07,17,05,54,8.70
2010,07,17,05,55,8.70
2010,07,17,05,56,8.70
2010,07,17,05,57,8.60
2010,07,17,05,58,8.60
2010,07,17,05,59,8.60
2010,07,17,06,00,8.60
2010,07,17,06,01,8.60
2010,07,17,06,02,8.60
2010,07,17,06,03,8.60
2010,07,17,06,04,8.60
2010,07,17,06,05,8.60
2010,07,17,06,06,8.60
2010,07,17,06,07,8.60
2010,07,17,06,08,8.60
2010,07,17,06,09,8.60
2010,07,17,06,10,8.60
2010,07,17,06,11,8.60
2010,07,17,06,12,8.60
2010,07,17,06,13,8.70
2010,07,17,06,14,8.70
2010,07,17,06,15,8.70
2010,07,17,06,16,8.70
2010,07,17,06,17,8.70
2010,07,17,06,18,8.70
2010,07,17,06,19,8.70
2010,07,17,06,20,8.70
2010,07,17,06,21,8.70
2010,07,17,06,22,8.80
2010,07,17,06,23,8.80
2010,07,17,06,24,8.80
2010,07,17,06,25,8.80
2010,07,17,06,26,8.80
2010,07,17,06,27,8.90
2010,07,17,06,28,8.90
2010,07,17,06,29,8.90
2010,07,17,06,30,8.90
2010,07,17,06,31,8.90
2010,07,17,06,32,9.00
2010,07,17,06,33,9.00
2010,07,17,06,34,9.10
2010,07,17,06,35,9.10
2010,07,17,06,36,9.20
2010,07,17,06,37,9.20
2010,07,17,06,38,9.20
2010,07,17,06,39,9.30
2010,07,17,06,40,9.40
2010,07,17,06,41,9.50
2010,07,17,06,42,9.60
2010,07,17,06,43,9.70
2010,07,17,06,44,9.80
2010,07,17,06,45,9.90
2010,07,17,06,46,9.90
2010,07,17,06,47,10.00
2010,07,17,06,48,10.10
2010,07,17,06,49,10.20
2010,07,17,06,50,10.20
2010,07,17,06,51,10.30
2010,07,17,06,52,10.40
2010,07,17,06,53,10.40
2010,07,17,06,54,10.40
2010,07,17,06,55,10.40
2010,07,17,06,56,10.40
2010,07,17,06,57,10.40
2010,07,17,06,58,10.40
2010,07,17,06,59,10.40
2010,07,17,07,00,10.40
2010,07,17,07,01,10.40
2010,07,17,07,02,10.40
2010,07,17,07,03,10.40
2010,07,17,07,04,10.50
2010,07,17,07,05,10.60
2010,07,17,07,06,10.70
2010,07,17,07,07,10.70
2010,07,17,07,08,10.90
2010,07,17,07,09,11.00
2010,07,17,07,10,11.10
2010,07,17,07,11,11.10
2010,07,17,07,12,11.20
2010,07,17,07,13,11.30
2010,07,17,07,14,11.40
2010,07,17,07,15,11.40
2010,07,17,07,16,11.40
2010,07,17,07,17,11.50
2010,07,17,07,18,11.60
2010,07,17,07,19,11.70
2010,07,17,07,20,11.70
2010,07,17,07,21,11.80
2010,07,17,07,22,11.90
2010,07,17,07,23,12.00
2010,07,17,07,24,12.00
2010,07,17,07,25,12.10
2010,07,17,07,26,12.10
2010,07,17,07,27,12.20
2010,07,17,07,28,12.20
2010,07,17,07,29,12.20
2010,07,17,07,30,12.20
2010,07,17,07,31,12.30
2010,07,17,07,32,12.30
2010,07,17,07,33,12.30
2010,07,17,07,34,12.40
2010,07,17,07,35,12.40
2010,07,17,07,36,12.40
2010,07,17,07,37,12.40
2010,07,17,07,38,12.50
2010,07,17,07,39,12.50
2010,07,17,07,40,12.50
2010,07,17,07,41,12.60
2010,07,17,07,42,12.60
2010,07,17,07,43,12.70
2010,07,17,07,44,12.80
2010,07,17,07,45,12.80
2010,07,17,07,46,12.90
2010,07,17,07,47,13.00
2010,07,17,07,48,13.10
2010,07,17,07,49,13.20
2010,07,17,07,50,13.30
2010,07,17,07,51,13.40
2010,07,17,07,52,13.50
2010,07,17,07,53,13.60
2010,07,17,07,54,13.70
2010,07,17,07,55,13.80
2010,07,17,07,56,13.90
2010,07,17,07,57,14.00
2010,07,17,07,58,14.00
2010,07,17,07,59,14.10
2010,07,17,08,00,14.20
2010,07,17,08,01,14.30
2010,07,17,08,02,14.40
2010,07,17,08,03,14.40
2010,07,17,08,04,14.50
2010,07,17,08,05,14.50
2010,07,17,08,06,14.60
2010,07,17,08,07,14.70
2010,07,17,08,08,14.80
2010,07,17,08,09,14.80
2010,07,17,08,10,14.90
2010,07,17,08,11,15.00
2010,07,17,08,12,15.00
2010,07,17,08,13,15.10
2010,07,17,08,14,15.10
2010,07,17,08,15,15.20
2010,07,17,08,16,15.30
2010,07,17,08,17,15.30
2010,07,17,08,18,15.40
2010,07,17,08,19,15.50
2010,07,17,08,20,15.60
2010,07,17,08,21,15.70
2010,07,17,08,22,15.80
2010,07,17,08,23,15.90
2010,07,17,08,24,16.10
2010,07,17,08,25,16.20
2010,07,17,08,26,16.30
2010,07,17,08,27,16.40
2010,07,17,08,28,16.40
2010,07,17,08,29,16.50
2010,07,17,08,30,16.60
2010,07,17,08,31,16.70
2010,07,17,08,32,16.80
2010,07,17,08,33,16.90
2010,07,17,08,34,17.00
2010,07,17,08,35,17.10
2010,07,17,08,36,17.20
2010,07,17,08,37,17.30
2010,07,17,08,38,17.30
2010,07,17,08,39,17.30
2010,07,17,08,40,17.30
2010,07,17,08,41,17.40
2010,07,17,08,42,17.50
2010,07,17,08,43,17.60
2010,07,17,08,44,17.60
2010,07,17,08,45,17.60
2010,07,17,08,46,17.50
2010,07,17,08,47,17.50
2010,07,17,08,48,17.40
2010,07,17,08,49,17.40
2010,07,17,08,50,17.30
2010,07,17,08,51,17.30
2010,07,17,08,52,17.30
2010,07,17,08,53,17.30
2010,07,17,08,54,17.40
2010,07,17,08,55,17.40
2010,07,17,08,56,17.50
2010,07,17,08,57,17.60
2010,07,17,08,58,17.70
2010,07,17,08,59,17.70
2010,07,17,09,00,17.70
2010,07,17,09,01,17.80
2010,07,17,09,02,17.80
2010,07,17,09,03,17.90
2010,07,17,09,04,17.90
2010,07,17,09,05,17.90
2010,07,17,09,06,17.90
2010,07,17,09,07,18.00
2010,07,17,09,08,18.10
2010,07,17,09,09,18.10
2010,07,17,09,10,18.20
2010,07,17,09,11,18.40
2010,07,17,09,12,18.50
2010,07,17,09,13,18.70
2010,07,17,09,14,18.70
2010,07,17,09,15,18.80
2010,07,17,09,16,18.90
2010,07,17,09,17,19.00
2010,07,17,09,18,19.10
2010,07,17,09,19,19.10
2010,07,17,09,20,19.10
2010,07,17,09,21,19.10
2010,07,17,09,22,19.10
2010,07,17,09,23,18.90
2010,07,17,09,24,18.90
2010,07,17,09,25,18.90
2010,07,17,09,26,19.00
2010,07,17,09,27,19.10
2010,07,17,09,28,19.10
2010,07,17,09,29,19.10
2010,07,17,09,30,19.10
2010,07,17,09,31,19.10
2010,07,17,09,32,19.20
2010,07,17,09,33,19.30
2010,07,17,09,34,19.20
2010,07,17,09,35,19.20
2010,07,17,09,36,19.20
2010,07,17,09,37,19.20
2010,07,17,09,38,19.20
2010,07,17,09,39,19.30
2010,07,17,09,40,19.40
2010,07,17,09,41,19.40
2010,07,17,09,42,19.50
2010,07,17,09,43,19.60
2010,07,17,09,44,19.60
2010,07,17,09,45,19.70
2010,07,17,09,46,19.80
2010,07,17,09,47,19.70
2010,07,17,09,48,19.60
2010,07,17,09,49,19.60
2010,07,17,09,50,19.50
2010,07,17,09,51,19.40
2010,07,17,09,52,19.30
2010,07,17,09,53,19.30
2010,07,17,09,54,19.20
2010,07,17,09,55,19.10
2010,07,17,09,56,19.10
2010,07,17,09,57,18.90
2010,07,17,09,58,18.90
2010,07,17,09,59,19.00
2010,07,17,10,00,19.10
2010,07,17,10,01,19.10
2010,07,17,10,02,19.10
2010,07,17,10,03,19.10
2010,07,17,10,04,19.10
2010,07,17,10,05,19.10
2010,07,17,10,06,19.00
2010,07,17,10,07,18.90
2010,07,17,10,08,18.90
2010,07,17,10,09,18.80
2010,07,17,10,10,18.80
2010,07,17,10,11,18.60
2010,07,17,10,12,18.50
2010,07,17,10,13,18.50
2010,07,17,10,14,18.40
2010,07,17,10,15,18.30
2010,07,17,10,16,18.30
2010,07,17,10,17,18.30
2010,07,17,10,18,18.30
2010,07,17,10,19,18.30
2010,07,17,10,20,18.30
2010,07,17,10,21,18.30
2010,07,17,10,22,18.30
2010,07,17,10,23,18.40
2010,07,17,10,24,18.30
2010,07,17,10,25,18.30
2010,07,17,10,26,18.40
2010,07,17,10,27,18.50
2010,07,17,10,28,18.50
2010,07,17,10,29,18.50
2010,07,17,10,30,18.60
2010,07,17,10,31,18.60
2010,07,17,10,32,18.60
2010,07,17,10,33,18.70
2010,07,17,10,34,18.70
2010,07,17,10,35,18.80
2010,07,17,10,36,18.80
2010,07,17,10,37,18.90
2010,07,17,10,38,18.90
2010,07,17,10,39,19.00
2010,07,17,10,40,19.10
2010,07,17,10,41,19.10
2010,07,17,10,42,19.20
2010,07,17,10,43,19.20
2010,07,17,10,44,19.30
2010,07,17,10,45,19.30
2010,07,17,10,46,19.30
2010,07,17,10,47,19.30
2010,07,17,10,48,19.30
2010,07,17,10,49,19.10
2010,07,17,10,50,19.10
2010,07,17,10,51,19.10
2010,07,17,10,52,19.10
2010,07,17,10,53,19.10
2010,07,17,10,54,19.10
2010,07,17,10,55,19.10
2010,07,17,10,56,19.20
2010,07,17,10,57,19.30
2010,07,17,10,58,19.30
2010,07,17,10,59,19.30
2010,07,17,11,00,19.30
2010,07,17,11,01,19.40
2010,07,17,11,02,19.40
2010,07,17,11,03,19.40
2010,07,17,11,04,19.40
2010,07,17,11,05,19.40
2010,07,17,11,06,19.50
2010,07,17,11,07,19.50
2010,07,17,11,08,19.60
2010,07,17,11,09,19.70
2010,07,17,11,10,19.70
2010,07,17,11,11,19.60
2010,07,17,11,12,19.40
2010,07,17,11,13,19.30
2010,07,17,11,14,19.10
2010,07,17,11,15,19.20
2010,07,17,11,16,19.30
2010,07,17,11,17,19.40
2010,07,17,11,18,19.40
2010,07,17,11,19,19.50
2010,07,17,11,20,19.50
2010,07,17,11,21,19.60
2010,07,17,11,22,19.60
2010,07,17,11,23,19.60
2010,07,17,11,24,19.60
2010,07,17,11,25,19.50
2010,07,17,11,26,19.50
2010,07,17,11,27,19.40
2010,07,17,11,28,19.40
2010,07,17,11,29,19.30
2010,07,17,11,30,19.20
2010,07,17,11,31,19.20
2010,07,17,11,32,19.20
2010,07,17,11,33,19.30
2010,07,17,11,34,19.30
2010,07,17,11,35,19.30
2010,07,17,11,36,19.30
2010,07,17,11,37,19.30
2010,07,17,11,38,19.40
2010,07,17,11,39,19.50
2010,07,17,11,40,19.60
2010,07,17,11,41,19.60
2010,07,17,11,42,19.60
2010,07,17,11,43,19.50
2010,07,17,11,44,19.50
2010,07,17,11,45,19.50
2010,07,17,11,46,19.50
2010,07,17,11,47,19.50
2010,07,17,11,48,19.50
2010,07,17,11,49,19.60
2010,07,17,11,50,19.70
2010,07,17,11,51,19.70
2010,07,17,11,52,19.80
2010,07,17,11,53,19.80
2010,07,17,11,54,19.60
2010,07,17,11,55,19.60
2010,07,17,11,56,19.60
2010,07,17,11,57,19.60
2010,07,17,11,58,19.60
2010,07,17,11,59,19.60
2010,07,17,12,00,19.60
2010,07,17,12,01,19.60
2010,07,17,12,02,19.60
2010,07,17,12,03,19.60
2010,07,17,12,04,19.60
2010,07,17,12,05,19.60
2010,07,17,12,06,19.60
2010,07,17,12,07,19.60
2010,07,17,12,08,19.60
2010,07,17,12,09,19.60
2010,07,17,12,10,19.60
2010,07,17,12,11,19.60
2010,07,17,12,12,19.60
2010,07,17,12,13,19.60
2010,07,17,12,14,19.60
2010,07,17,12,15,19.60
2010,07,17,12,16,19.60
2010,07,17,12,17,19.60
2010,07,17,12,18,19.60
2010,07,17,12,19,19.60
2010,07,17,12,20,19.60
2010,07,17,12,21,19.60
2010,07,17,12,22,19.60
2010,07,17,12,23,19.70
2010,07,17,12,24,19.70
2010,07,17,12,25,19.80
2010,07,17,12,26,19.80
2010,07,17,12,27,19.80
2010,07,17,12,28,19.80
2010,07,17,12,29,19.70
2010,07,17,12,30,19.60
2010,07,17,12,31,19.50
2010,07,17,12,32,19.60
2010,07,17,12,33,19.60
2010,07,17,12,34,19.60
2010,07,17,12,35,19.70
2010,07,17,12,36,19.80
2010,07,17,12,37,19.80
2010,07,17,12,38,19.90
2010,07,17,12,39,19.80
2010,07,17,12,40,19.90
2010,07,17,12,41,19.90
2010,07,17,12,42,19.90
2010,07,17,12,43,20.00
2010,07,17,12,44,20.00
2010,07,17,12,45,20.10
2010,07,17,12,46,20.10
2010,07,17,12,47,20.10
2010,07,17,12,48,20.10
2010,07,17,12,49,20.10
2010,07,17,12,50,20.20
2010,07,17,12,51,20.20
2010,07,17,12,52,20.30
2010,07,17,12,53,20.30
2010,07,17,12,54,20.20
2010,07,17,12,55,20.20
2010,07,17,12,56,20.10
2010,07,17,12,57,20.10
2010,07,17,12,58,20.10
2010,07,17,12,59,20.10
2010,07,17,13,00,20.20
2010,07,17,13,01,20.10
2010,07,17,13,02,20.10
2010,07,17,13,03,20.10
2010,07,17,13,04,20.20
2010,07,17,13,05,20.20
2010,07,17,13,06,20.20
2010,07,17,13,07,20.30
2010,07,17,13,08,20.30
2010,07,17,13,09,20.30
2010,07,17,13,10,20.30
2010,07,17,13,11,20.40
2010,07,17,13,12,20.40
2010,07,17,13,13,20.40
2010,07,17,13,14,20.20
2010,07,17,13,15,20.10
2010,07,17,13,16,20.10
2010,07,17,13,17,20.10
2010,07,17,13,18,19.90
2010,07,17,13,19,19.80
2010,07,17,13,20,19.80
2010,07,17,13,21,19.80
2010,07,17,13,22,19.80
2010,07,17,13,23,19.80
2010,07,17,13,24,19.90
2010,07,17,13,25,19.90
2010,07,17,13,26,19.90
2010,07,17,13,27,20.00
2010,07,17,13,28,19.90
2010,07,17,13,29,19.90
2010,07,17,13,30,20.00
2010,07,17,13,31,20.10
2010,07,17,13,32,20.10
2010,07,17,13,33,20.20
2010,07,17,13,34,20.20
2010,07,17,13,35,20.30
2010,07,17,13,36,20.20
2010,07,17,13,37,20.20
2010,07,17,13,38,20.20
2010,07,17,13,39,20.20
2010,07,17,13,40,20.10
2010,07,17,13,41,19.80
2010,07,17,13,42,19.60
2010,07,17,13,43,19.40
2010,07,17,13,44,19.40
2010,07,17,13,45,19.50
2010,07,17,13,46,19.50
2010,07,17,13,47,19.70
2010,07,17,13,48,19.90
2010,07,17,13,49,19.90
2010,07,17,13,50,19.90
2010,07,17,13,51,19.90
2010,07,17,13,52,19.70
2010,07,17,13,53,19.70
2010,07,17,13,54,19.60
2010,07,17,13,55,19.60
2010,07,17,13,56,19.70
2010,07,17,13,57,19.70
2010,07,17,13,58,19.70
2010,07,17,13,59,19.80
2010,07,17,14,00,19.90
2010,07,17,14,01,19.90
2010,07,17,14,02,20.10
2010,07,17,14,03,20.00
2010,07,17,14,04,19.90
2010,07,17,14,05,20.00
2010,07,17,14,06,20.10
2010,07,17,14,07,20.10
2010,07,17,14,08,20.20
2010,07,17,14,09,20.30
2010,07,17,14,10,20.20
2010,07,17,14,11,20.10
2010,07,17,14,12,20.00
2010,07,17,14,13,20.10
2010,07,17,14,14,20.10
2010,07,17,14,15,20.10
2010,07,17,14,16,20.20
2010,07,17,14,17,20.30
2010,07,17,14,18,20.40
2010,07,17,14,19,20.40
2010,07,17,14,20,20.50
2010,07,17,14,21,20.40
2010,07,17,14,22,20.30
2010,07,17,14,23,20.40
2010,07,17,14,24,20.50
2010,07,17,14,25,20.40
2010,07,17,14,26,20.30
2010,07,17,14,27,20.30
2010,07,17,14,28,20.30
2010,07,17,14,29,20.30
2010,07,17,14,30,20.20
2010,07,17,14,31,20.20
2010,07,17,14,32,20.30
2010,07,17,14,33,20.30
2010,07,17,14,34,20.30
2010,07,17,14,35,20.20
2010,07,17,14,36,20.10
2010,07,17,14,37,20.10
2010,07,17,14,38,20.20
2010,07,17,14,39,20.20
2010,07,17,14,40,20.20
2010,07,17,14,41,20.10
2010,07,17,14,42,20.00
2010,07,17,14,43,19.90
2010,07,17,14,44,19.90
2010,07,17,14,45,19.80
2010,07,17,14,46,19.80
2010,07,17,14,47,19.70
2010,07,17,14,48,19.80
2010,07,17,14,49,20.00
2010,07,17,14,50,20.20
2010,07,17,14,51,20.30
2010,07,17,14,52,20.40
2010,07,17,14,53,20.50
2010,07,17,14,54,20.50
2010,07,17,14,55,20.40
2010,07,17,14,56,20.40
2010,07,17,14,57,20.40
2010,07,17,14,58,20.30
2010,07,17,14,59,20.20
2010,07,17,15,00,20.30
2010,07,17,15,01,20.40
2010,07,17,15,02,20.50
2010,07,17,15,03,20.70
2010,07,17,15,04,20.80
2010,07,17,15,05,20.90
2010,07,17,15,06,20.90
2010,07,17,15,07,21.00
2010,07,17,15,08,21.10
2010,07,17,15,09,21.10
2010,07,17,15,10,21.00
2010,07,17,15,11,20.80
2010,07,17,15,12,20.80
2010,07,17,15,13,20.70
2010,07,17,15,14,20.60
2010,07,17,15,15,20.60
2010,07,17,15,16,20.60
2010,07,17,15,17,20.60
2010,07,17,15,18,20.50
2010,07,17,15,19,20.40
2010,07,17,15,20,20.40
2010,07,17,15,21,20.50
2010,07,17,15,22,20.50
2010,07,17,15,23,20.50
2010,07,17,15,24,20.50
2010,07,17,15,25,20.50
2010,07,17,15,26,20.50
2010,07,17,15,27,20.60
2010,07,17,15,28,20.50
2010,07,17,15,29,20.50
2010,07,17,15,30,20.40
2010,07,17,15,31,20.00
2010,07,17,15,32,19.70
2010,07,17,15,33,19.60
2010,07,17,15,34,19.60
2010,07,17,15,35,19.60
2010,07,17,15,36,19.60
2010,07,17,15,37,19.40
2010,07,17,15,38,19.40
2010,07,17,15,39,19.30
2010,07,17,15,40,19.20
2010,07,17,15,41,19.20
2010,07,17,15,42,19.20
2010,07,17,15,43,19.40
2010,07,17,15,44,19.50
2010,07,17,15,45,19.60
2010,07,17,15,46,19.70
2010,07,17,15,47,19.80
2010,07,17,15,48,19.90
2010,07,17,15,49,20.00
2010,07,17,15,50,20.10
2010,07,17,15,51,20.00
2010,07,17,15,52,19.90
2010,07,17,15,53,19.90
2010,07,17,15,54,19.80
2010,07,17,15,55,19.80
2010,07,17,15,56,19.70
2010,07,17,15,57,19.70
2010,07,17,15,58,19.70
2010,07,17,15,59,19.70
2010,07,17,16,00,19.60
2010,07,17,16,01,19.60
2010,07,17,16,02,19.60
2010,07,17,16,03,19.50
2010,07,17,16,04,19.50
2010,07,17,16,05,19.50
2010,07,17,16,06,19.60
2010,07,17,16,07,19.50
2010,07,17,16,08,19.50
2010,07,17,16,09,19.40
2010,07,17,16,10,19.30
2010,07,17,16,11,19.30
2010,07,17,16,12,19.30
2010,07,17,16,13,19.20
2010,07,17,16,14,19.20
2010,07,17,16,15,19.20
2010,07,17,16,16,19.20
2010,07,17,16,17,19.20
2010,07,17,16,18,19.20
2010,07,17,16,19,19.10
2010,07,17,16,20,19.10
2010,07,17,16,21,19.10
2010,07,17,16,22,19.10
2010,07,17,16,23,19.10
2010,07,17,16,24,19.10
2010,07,17,16,25,19.20
2010,07,17,16,26,19.30
2010,07,17,16,27,19.40
2010,07,17,16,28,19.40
2010,07,17,16,29,19.40
2010,07,17,16,30,19.30
2010,07,17,16,31,19.30
2010,07,17,16,32,19.30
2010,07,17,16,33,19.40
2010,07,17,16,34,19.50
2010,07,17,16,35,19.50
2010,07,17,16,36,19.50
2010,07,17,16,37,19.50
2010,07,17,16,38,19.50
2010,07,17,16,39,19.40
2010,07,17,16,40,19.40
2010,07,17,16,41,19.40
2010,07,17,16,42,19.40
2010,07,17,16,43,19.40
2010,07,17,16,44,19.50
2010,07,17,16,45,19.50
2010,07,17,16,46,19.50
2010,07,17,16,47,19.50
2010,07,17,16,48,19.50
2010,07,17,16,49,19.50
2010,07,17,16,50,19.60
2010,07,17,16,51,19.60
2010,07,17,16,52,19.70
2010,07,17,16,53,19.70
2010,07,17,16,54,19.60
2010,07,17,16,55,19.60
2010,07,17,16,56,19.50
2010,07,17,16,57,19.50
2010,07,17,16,58,19.50
2010,07,17,16,59,19.40
2010,07,17,17,00,19.50
2010,07,17,17,01,19.60
2010,07,17,17,02,19.70
2010,07,17,17,03,19.80
2010,07,17,17,04,19.90
2010,07,17,17,05,19.90
2010,07,17,17,06,20.00
2010,07,17,17,07,20.10
2010,07,17,17,08,20.10
2010,07,17,17,09,20.20
2010,07,17,17,10,20.20
2010,07,17,17,11,20.20
2010,07,17,17,12,20.30
2010,07,17,17,13,20.30
2010,07,17,17,14,20.40
2010,07,17,17,15,20.30
2010,07,17,17,16,20.20
2010,07,17,17,17,20.20
2010,07,17,17,18,20.20
2010,07,17,17,19,20.20
2010,07,17,17,20,20.20
2010,07,17,17,21,20.20
2010,07,17,17,22,20.30
2010,07,17,17,23,20.30
2010,07,17,17,24,20.40
2010,07,17,17,25,20.40
2010,07,17,17,26,20.40
2010,07,17,17,27,20.30
2010,07,17,17,28,20.20
2010,07,17,17,29,20.20
2010,07,17,17,30,20.10